Terminal Aerodrome Forecast
Issued by NWS Raleigh/Durham, NC

Home | Current Version | Previous Version | Text Only | Print | Product List | Glossary On
Versions: 1 2 3 4 5 6 7 8 9 10 11 12 13 14 15 16 17 18 19 20 21 22 23
000
FTUS42 KRAH 200158 AAA
TAFGSO
TAF AMD
KGSO 200158Z 2002/2024 04009KT P6SM OVC080
     FM201500 05010G18KT P6SM FEW040 SCT200=

USA.gov is the U.S. government's official web portal to all federal, state and local government web resources and services.